Home   Weather   Santa Fe   Past weeks
Flag for USA

Past Weather in Santa Fe, New Mexico, USA — Yesterday and Last 2 Weeks

Now
72 °F

Clear.


Feels Like: 77 °F
Forecast: 88 / 62 °F
Wind: 6 mph from Southeast

Location: Santa Fe County Municipal Airport

Current Time: Jul 20, 2019 at 1:29:34 am

Latest Report: Jul 20, 2019 at 12:53 am


Visibility: 10 mi

Pressure: 29.74 "Hg (23.24 "Hg at 2132m altitude)

Humidity: 37%

Dew Point: 44 °F

Location of Santa FeLocation

Past Weather in Santa Fe — Graph

°F

Santa Fe Temperature Yesterday

Maximum temperature yesterday: 97 °F (at 2:53 pm)
Minimum temperature yesterday: 60 °F (at 5:53 am)
Average temperature yesterday: 79 °F

High & Low Weather Summary for the Past Weeks

 TemperatureHumidityPressure
High97 °F (Jul 19, 2:53 pm)96% (Jul 7, 1:53 am)30.40 "Hg (Jul 7, 1:53 am)
Low46 °F (Jul 9, 5:53 am)7% (Jul 9, 2:53 pm)29.68 "Hg (Jul 18, 7:53 pm)
Average74 °F39%29.93 "Hg
* Reported Jul 4 11:53 pm — Jul 19 11:53 pm, Santa Fe. Weather by CustomWeather, © 2019

Note: Actual official high and low records may vary slightly from our data, if they occured in-between our weather recording intervals... More about our weather records

Advertising

Santa Fe Weather History for the Previous 24 Hours

Scroll right to see more
 ConditionsComfort  
Time TempWeatherWind HumidityBarometerVisibility
11:53 pm
Fri, Jul 19
75 °FClear.10 mph33%29.74 "Hg10 mi
10:53 pm71 °FClear.5 mph32%29.75 "Hg10 mi
9:53 pm77 °FClear.7 mph28%29.74 "Hg10 mi
8:53 pm81 °FClear.13 mph23%29.71 "Hg10 mi
7:53 pm85 °FPassing clouds.14 mph20%29.69 "Hg10 mi
6:53 pm88 °FPassing clouds.10 mph18%29.70 "Hg10 mi
5:53 pm92 °FPassing clouds.5 mph11%29.69 "Hg10 mi
4:53 pm93 °FSunny.6 mph11%29.69 "Hg10 mi
3:53 pm94 °FSunny.8 mph11%29.69 "Hg10 mi
2:53 pm97 °FSunny.14 mph10%29.68 "Hg10 mi
1:53 pm95 °FSunny.9 mph12%29.72 "Hg10 mi
12:53 pm93 °FSunny.13 mph13%29.74 "Hg10 mi
11:53 am91 °FSunny.7 mph14%29.76 "Hg10 mi
10:53 am89 °FSunny.5 mph14%29.77 "Hg10 mi
9:53 am83 °FSunny.6 mph19%29.78 "Hg10 mi
8:53 am79 °FSunny.9 mph20%29.78 "Hg10 mi
7:53 am72 °FSunny.9 mph24%29.78 "Hg10 mi
6:53 am64 °FSunny.8 mph32%29.78 "Hg10 mi
5:53 am60 °FClear.10 mph36%29.78 "Hg10 mi
4:53 am61 °FClear.7 mph35%29.75 "Hg10 mi
3:53 am64 °FClear.8 mph29%29.74 "Hg10 mi
2:53 am68 °FClear.6 mph22%29.72 "Hg10 mi
1:53 am66 °FClear.10 mph27%29.72 "Hg10 mi
Weather by CustomWeather, © 2019

See weather overview